FW5323 Weather Reports


time (UTC)temp
F
wind
direction
speed
knots
gust
knots
rain 1hr
in
rain 24hr
in
rain mn
in
humidity
%
barometer
mb
20260510180035 69 0 0.0 2.6 0.00 0.16 0.00 65 1011.4
20260510175528 69 0 0.0 0.0 0.00 0.17 0.00 67 1011.5
20260510175028 69 0 0.0 2.6 0.00 0.17 0.00 64 1011.7
20260510174535 69 0 0.0 2.6 0.00 0.17 0.00 66 1011.7
20260510174028 69 267 0.9 2.6 0.00 0.17 0.00 67 1011.8
20260510173529 68 219 0.9 5.2 0.00 0.17 0.00 67 1011.7
20260510173039 68 0 0.0 5.2 0.00 0.17 0.00 67 1011.7
20260510172528 68 207 0.9 3.5 0.00 0.17 0.00 69 1011.7
20260510172028 68 304 0.9 2.6 0.00 0.17 0.00 69 1011.9
20260510171539 68 263 0.0 3.5 0.00 0.17 0.00 68 1012.0
20260510171027 68 0 0.9 3.5 0.00 0.17 0.00 71 1011.9
20260510170527 68 0 0.0 0.0 0.00 0.17 0.00 70 1012.0
20260510170041 68 0 0.0 2.6 0.00 0.17 0.00 68 1011.9
20260510165528 68 0 0.0 5.2 0.00 0.19 0.00 69 1012.0
20260510165028 68 203 1.7 5.2 0.00 0.19 0.00 67 1011.9
20260510164547 68 276 0.9 4.3 0.00 0.19 0.00 69 1011.8
20260510164027 67 0 0.0 4.3 0.00 0.19 0.00 69 1011.7
20260510163527 67 250 0.0 3.5 0.00 0.19 0.00 71 1011.8
20260510163044 67 0 0.9 6.1 0.00 0.19 0.00 71 1011.9
20260510162528 67 0 1.7 6.1 0.00 0.19 0.00 70 1012.0
20260510162028 67 199 0.9 3.5 0.00 0.19 0.00 71 1012.0
20260510161542 66 0 0.0 4.3 0.00 0.19 0.00 71 1012.0
20260510161028 66 175 0.9 4.3 0.00 0.19 0.00 72 1012.0
20260510160528 66 213 0.0 3.5 0.00 0.19 0.00 71 1012.1
20260510160041 66 182 0.9 3.5 0.00 0.19 0.00 73 1012.2
20260510155527 66 201 0.9 7.0 0.00 0.19 0.00 73 1012.0
20260510155028 66 0 0.9 7.0 0.00 0.19 0.00 72 1012.1
20260510154546 66 161 1.7 6.1 0.00 0.19 0.00 72 1012.1
20260510154031 66 173 0.9 3.5 0.00 0.19 0.00 72 1012.0
20260510153528 65 302 1.7 4.3 0.00 0.19 0.00 73 1012.0
20260510153035 65 0 0.0 4.3 0.00 0.19 0.00 74 1012.1
20260510152527 65 197 0.9 5.2 0.00 0.19 0.00 74 1012.0
20260510152029 65 0 1.7 5.2 0.00 0.19 0.00 73 1012.0
20260510151553 65 205 0.9 4.3 0.00 0.19 0.00 76 1012.1
20260510151028 64 192 0.9 4.3 0.00 0.19 0.00 75 1011.9
20260510150530 64 192 0.9 5.2 0.00 0.19 0.00 76 1011.9
20260510150048 63 188 1.7 7.0 0.00 0.19 0.00 77 1012.0
20260510145528 63 179 0.9 7.0 0.00 0.20 0.00 77 1011.8
20260510145028 63 170 2.6 7.0 0.00 0.20 0.00 77 1011.8
20260510144554 62 210 1.7 6.1 0.00 0.20 0.00 77 1011.8
20260510144028 62 177 1.7 4.3 0.00 0.20 0.00 77 1011.8
20260510143527 62 216 1.7 5.2 0.00 0.20 0.00 79 1011.8
20260510143052 61 213 0.9 7.8 0.00 0.20 0.00 78 1011.9
20260510142527 61 167 1.7 7.8 0.00 0.20 0.00 80 1011.8
20260510142028 61 290 1.7 7.0 0.00 0.20 0.00 79 1011.7
20260510141538 61 165 1.7 5.2 0.00 0.20 0.00 79 1011.7
20260510141029 60 0 0.0 1.7 0.00 0.20 0.00 81 1011.7
20260510140528 60 0 0.0 3.5 0.00 0.20 0.00 81 1011.7
20260510140038 59 0 0.9 4.3 0.00 0.20 0.00 81 1011.7
20260510135528 59 222 0.0 4.3 0.00 0.20 0.00 83 1011.6
20260510135028 59 209 0.9 4.3 0.00 0.20 0.00 81 1011.6
20260510134539 58 221 0.0 6.1 0.00 0.20 0.00 82 1011.5
20260510134027 58 283 1.7 6.1 0.00 0.20 0.00 84 1011.7
20260510133527 58 0 0.9 3.5 0.00 0.20 0.00 85 1011.8
20260510133038 57 0 1.7 4.3 0.00 0.20 0.00 85 1011.9
20260510132530 57 0 0.9 4.3 0.00 0.20 0.00 85 1012.1
20260510132028 56 0 0.9 4.3 0.00 0.20 0.00 87 1012.1
20260510131545 56 193 0.9 4.3 0.00 0.20 0.00 88 1012.0
20260510131031 56 146 0.0 3.5 0.00 0.20 0.00 89 1012.0
20260510130528 55 0 0.0 1.7 0.00 0.20 0.00 90 1011.9
20260510130037 55 189 0.0 1.7 0.00 0.20 0.00 91 1011.9
20260510125530 54 0 0.0 1.7 0.00 0.20 0.00 91 1012.0
20260510125029 54 0 0.0 1.7 0.00 0.20 0.00 90 1012.1
20260510124542 53 0 0.0 2.6 0.00 0.20 0.00 91 1012.0
20260510124029 53 0 0.0 2.6 0.00 0.20 0.00 90 1012.1
20260510123527 53 0 0.0 0.0 0.00 0.20 0.00 91 1012.0
20260510123048 53 0 0.0 0.0 0.00 0.20 0.00 90 1011.9
20260510122526 52 0 0.0 1.7 0.00 0.20 0.00 90 1011.8
20260510122027 52 0 0.0 1.7 0.00 0.20 0.00 90 1011.8
20260510121539 52 0 0.0 1.7 0.00 0.20 0.00 90 1011.6
20260510121030 52 0 0.0 0.0 0.00 0.20 0.00 90 1011.6
20260510120528 51 0 0.0 0.0 0.00 0.20 0.00 90 1011.7
20260510120036 51 0 0.0 0.0 0.00 0.20 0.00 90 1011.5
20260510115527 51 0 0.0 0.0 0.00 0.21 0.00 90 1011.7
20260510115032 51 0 0.0 0.0 0.00 0.21 0.00 90 1011.5
20260510114542 51 0 0.0 0.0 0.00 0.21 0.00 90 1011.5
20260510114031 51 0 0.0 0.0 0.00 0.21 0.00 90 1011.5
20260510113528 51 0 0.0 0.0 0.00 0.21 0.00 90 1011.4
20260510113039 51 0 0.0 0.0 0.00 0.21 0.00 90 1011.3
20260510112529 51 0 0.0 0.0 0.00 0.21 0.00 90 1011.3
20260510112027 51 0 0.0 0.0 0.00 0.21 0.00 90 1011.4
20260510111543 50 0 0.0 0.0 0.00 0.21 0.00 90 1011.2
20260510111027 50 0 0.0 0.0 0.00 0.21 0.00 90 1011.2
20260510110527 50 0 0.0 0.0 0.00 0.21 0.00 90 1011.2
20260510110039 50 0 0.0 0.0 0.00 0.21 0.00 90 1011.2
20260510105528 50 0 0.0 0.0 0.00 0.21 0.00 90 1011.1
20260510105028 50 0 0.0 0.0 0.00 0.21 0.00 90 1011.1
20260510104537 50 0 0.0 0.0 0.00 0.21 0.00 90 1011.0
20260510104029 50 0 0.0 0.0 0.00 0.21 0.00 90 1011.0
20260510103527 50 0 0.0 0.0 0.00 0.21 0.00 90 1010.8
20260510103037 50 0 0.0 0.0 0.00 0.21 0.00 90 1010.8
20260510102530 50 0 0.0 0.0 0.00 0.21 0.00 90 1010.9
20260510102028 50 0 0.0 0.0 0.00 0.21 0.00 90 1011.0
20260510101538 50 0 0.0 0.0 0.00 0.21 0.00 90 1010.9
20260510101028 50 0 0.0 0.0 0.00 0.21 0.00 90 1010.8
20260510100528 50 0 0.0 0.0 0.00 0.21 0.00 90 1010.7
20260510100041 50 0 0.0 0.0 0.00 0.21 0.00 90 1010.6
20260510095527 50 0 0.0 0.0 0.00 0.23 0.00 90 1010.8
20260510095027 50 0 0.0 0.0 0.00 0.23 0.00 90 1010.9
20260510094538 50 0 0.0 0.0 0.00 0.23 0.00 90 1010.4
20260510094028 50 0 0.0 0.0 0.00 0.23 0.00 90 1010.5
20260510093527 50 0 0.0 0.0 0.00 0.23 0.00 90 1010.6
20260510093036 50 0 0.0 0.0 0.00 0.23 0.00 90 1010.3
20260510092527 50 0 0.0 0.0 0.00 0.23 0.00 90 1010.4
20260510092027 50 0 0.0 0.0 0.00 0.23 0.00 90 1010.5
20260510091535 50 0 0.0 0.0 0.00 0.23 0.00 90 1010.2
20260510091027 50 0 0.0 0.0 0.00 0.23 0.00 90 1010.0
20260510090527 50 0 0.0 2.6 0.00 0.23 0.00 90 1009.9
20260510090040 50 0 0.0 5.2 0.00 0.23 0.00 90 1010.0
20260510085528 50 0 0.9 5.2 0.00 0.24 0.00 90 1010.2
20260510085028 50 150 0.0 3.5 0.00 0.24 0.00 90 1010.0
20260510084540 50 0 0.0 1.7 0.00 0.24 0.00 90 1010.1
20260510084028 50 0 0.0 0.9 0.00 0.24 0.00 90 1010.3
20260510083528 50 0 0.0 0.0 0.00 0.24 0.00 90 1010.4
20260510083038 50 0 0.0 0.0 0.00 0.24 0.00 90 1010.4
20260510082526 50 0 0.0 0.0 0.00 0.24 0.00 90 1010.4
20260510082027 50 0 0.0 0.0 0.00 0.24 0.00 90 1010.3
20260510081538 50 0 0.0 0.0 0.00 0.24 0.00 90 1010.5
20260510081027 50 0 0.0 0.0 0.00 0.24 0.00 90 1010.7
20260510080527 50 0 0.0 0.0 0.00 0.24 0.00 90 1010.7
20260510080223 50 0 0.0 0.0 0.00 0.24 0.00 90 1010.6
20260510075527 51 0 0.0 0.0 0.00 0.25 0.00 90 1010.7
20260510075027 51 0 0.0 0.0 0.00 0.25 0.00 90 1010.7
20260510074548 51 0 0.0 0.0 0.00 0.25 0.00 90 1010.9
20260510074029 51 0 0.0 0.0 0.00 0.25 0.00 90 1010.9
20260510073530 51 0 0.0 0.0 0.00 0.25 0.00 90 1011.1
20260510073042 51 0 0.0 0.0 0.00 0.25 0.00 90 1011.1
20260510072527 51 0 0.0 0.0 0.00 0.25 0.00 90 1011.0
20260510072027 51 0 0.0 0.0 0.00 0.25 0.00 90 1011.2
20260510071540 51 0 0.0 0.0 0.00 0.25 0.00 90 1011.2
20260510071028 51 0 0.0 0.0 0.00 0.25 0.00 90 1011.3
20260510070527 51 0 0.0 0.9 0.00 0.25 0.00 90 1011.3
20260510070043 51 0 0.0 2.6 0.00 0.25 0.00 90 1011.2
20260510065527 51 0 0.0 3.5 0.00 0.25 0.00 90 1011.1
20260510065027 51 0 0.9 3.5 0.00 0.25 0.00 90 1011.3
20260510064549 51 0 0.0 0.0 0.00 0.25 0.00 90 1010.9
20260510064026 51 0 0.0 0.0 0.00 0.25 0.00 90 1010.8
20260510063527 51 0 0.0 0.0 0.00 0.25 0.00 90 1010.7
20260510063040 51 0 0.0 0.0 0.00 0.25 0.00 90 1010.7
20260510062528 51 0 0.0 0.0 0.00 0.25 0.00 90 1010.7
20260510062027 51 0 0.0 0.0 0.00 0.25 0.00 90 1010.6
20260510061536 51 0 0.0 0.0 0.00 0.25 0.00 90 1010.6
20260510061027 51 0 0.0 0.0 0.00 0.25 0.00 90 1010.7
20260510060527 51 0 0.0 0.0 0.00 0.25 0.00 90 1010.6
20260510060038 51 0 0.0 0.0 0.00 0.25 0.00 90 1010.8
20260510055526 51 0 0.0 0.0 0.00 0.25 0.00 90 1010.7
20260510055029 51 0 0.0 0.0 0.00 0.25 0.00 90 1010.7
20260510054550 51 0 0.0 0.0 0.00 0.25 0.00 90 1010.8
20260510054027 51 0 0.0 0.0 0.00 0.25 0.00 90 1010.9
20260510053528 51 0 0.0 0.0 0.00 0.25 0.00 90 1010.8
20260510053043 51 0 0.0 0.0 0.00 0.25 0.00 90 1010.9
20260510052528 51 0 0.0 0.0 0.00 0.25 0.00 90 1010.8
20260510052029 51 0 0.0 0.0 0.00 0.25 0.00 90 1010.7
20260510051547 51 0 0.0 0.0 0.00 0.25 0.00 90 1010.5
20260510051031 51 0 0.0 0.0 0.00 0.25 0.00 90 1010.4
20260510050527 51 0 0.0 0.0 0.00 0.25 0.00 90 1010.4
20260510050040 51 0 0.0 0.0 0.00 0.25 0.00 90 1010.5
20260510045527 51 0 0.0 0.0 0.00 0.25 0.00 90 1010.4
20260510045029 51 0 0.0 0.0 0.00 0.25 0.00 90 1010.4
20260510044537 51 0 0.0 0.0 0.00 0.25 0.00 90 1010.3
20260510044027 51 0 0.0 0.0 0.00 0.25 0.00 90 1010.4
20260510043527 51 0 0.0 0.0 0.00 0.25 0.00 90 1010.4
20260510043041 51 0 0.0 0.9 0.00 0.25 0.00 90 1010.4
20260510042532 51 0 0.0 0.9 0.00 0.25 0.00 90 1010.3
20260510042027 51 0 0.0 0.9 0.00 0.25 0.00 90 1010.5
20260510041535 50 0 0.0 0.0 0.00 0.25 0.00 90 1010.4
20260510041026 50 0 0.0 0.0 0.00 0.25 0.00 90 1010.4
20260510040527 50 0 0.0 0.0 0.00 0.25 0.00 90 1010.3
20260510040044 50 0 0.0 0.0 0.00 0.25 0.00 90 1010.3
20260510035527 50 0 0.0 0.0 0.00 0.25 0.25 90 1010.4
20260510035026 50 0 0.0 0.9 0.00 0.25 0.25 90 1010.4
20260510034554 50 0 0.0 0.9 0.00 0.25 0.25 89 1010.5
20260510034028 50 0 0.0 0.0 0.00 0.25 0.25 89 1010.4
20260510033529 49 0 0.0 0.0 0.00 0.25 0.25 89 1010.4
20260510033045 49 0 0.0 0.0 0.00 0.25 0.25 89 1010.2
20260510032526 49 0 0.0 1.7 0.00 0.25 0.25 89 1010.4
20260510032027 49 0 0.0 1.7 0.00 0.25 0.25 89 1010.4
20260510031538 49 169 0.0 1.7 0.00 0.25 0.25 89 1010.5
20260510031027 49 0 0.0 0.0 0.00 0.25 0.25 89 1010.5
20260510030526 49 0 0.0 0.0 0.00 0.25 0.25 89 1010.6
20260510030044 49 0 0.0 0.0 0.00 0.25 0.25 89 1010.6
20260510025527 49 0 0.0 0.0 0.00 0.25 0.25 88 1010.6
20260510025028 49 0 0.0 0.0 0.00 0.25 0.25 88 1010.3
20260510024542 49 0 0.0 0.0 0.00 0.25 0.25 88 1010.3
20260510024030 49 0 0.0 0.9 0.00 0.25 0.25 88 1010.5
20260510023527 49 0 0.0 0.9 0.00 0.25 0.25 88 1010.4
20260510023038 49 0 0.0 0.9 0.00 0.25 0.25 89 1010.3
20260510022527 50 0 0.0 0.0 0.00 0.25 0.25 89 1010.2
20260510022027 50 0 0.0 0.0 0.00 0.25 0.25 88 1010.3
20260510021539 50 0 0.0 0.0 0.00 0.25 0.25 88 1010.1
20260510021026 50 0 0.0 1.7 0.00 0.25 0.25 88 1010.2
20260510020526 50 0 0.0 1.7 0.00 0.25 0.25 88 1010.2
20260510020035 50 0 0.0 0.0 0.00 0.25 0.25 88 1010.2
20260510015528 50 0 0.0 0.0 0.00 0.25 0.25 88 1010.4
20260510015027 50 0 0.0 0.0 0.00 0.25 0.25 88 1010.4
20260510014546 50 0 0.0 0.0 0.00 0.25 0.25 88 1010.6
20260510014027 50 0 0.0 0.0 0.00 0.25 0.25 88 1010.6
20260510013531 50 0 0.0 0.0 0.00 0.25 0.25 87 1010.4
20260510013039 50 0 0.0 0.0 0.00 0.25 0.25 87 1010.3
20260510012527 51 0 0.0 0.0 0.00 0.25 0.25 87 1010.2
20260510012030 51 0 0.0 0.0 0.00 0.25 0.25 87 1010.2
20260510011536 51 0 0.0 0.0 0.00 0.25 0.25 87 1010.1
20260510011027 51 0 0.0 0.0 0.00 0.25 0.25 88 1010.1
20260510010528 51 0 0.0 0.0 0.00 0.25 0.25 88 1010.2
20260510010039 51 0 0.0 0.0 0.00 0.25 0.25 87 1010.3
20260510005528 51 0 0.0 0.0 0.00 0.25 0.25 87 1010.2
20260510005026 52 0 0.0 0.0 0.00 0.25 0.25 87 1010.1
20260510004535 52 0 0.0 0.0 0.00 0.25 0.25 87 1009.9
20260510004026 52 0 0.0 0.0 0.00 0.25 0.25 86 1010.0
20260510003528 52 0 0.0 0.0 0.00 0.25 0.25 86 1009.8
20260510003043 52 0 0.0 0.0 0.00 0.25 0.25 86 1009.7
20260510002526 53 0 0.0 0.0 0.00 0.25 0.25 86 1009.5
20260510002026 53 0 0.0 0.0 0.00 0.25 0.25 86 1009.4
20260510001539 53 0 0.0 0.0 0.00 0.25 0.25 86 1009.4
20260510001027 53 0 0.0 0.0 0.00 0.25 0.25 86 1009.4
20260510000527 54 0 0.0 0.0 0.00 0.25 0.25 86 1009.2
20260510000048 54 0 0.0 0.0 0.00 0.25 0.25 86 1009.1
20260509235527 54 0 0.0 0.0 0.00 0.25 0.25 86 1009.2
20260509235027 54 0 0.0 0.0 0.00 0.25 0.25 86 1009.0
20260509234538 54 0 0.0 0.0 0.00 0.25 0.25 86 1009.1
20260509234027 54 0 0.0 0.0 0.00 0.25 0.25 86 1009.1
20260509233526 54 0 0.0 0.0 0.00 0.25 0.25 86 1009.2
20260509233040 54 0 0.0 0.0 0.00 0.25 0.25 85 1009.1
20260509232527 55 0 0.0 0.0 0.00 0.25 0.25 86 1009.2
20260509232026 55 0 0.0 0.0 0.00 0.25 0.25 86 1009.3
20260509231539 55 0 0.0 0.0 0.01 0.25 0.25 86 1009.3
20260509231026 55 0 0.0 4.3 0.01 0.25 0.25 86 1009.4
20260509230526 55 0 0.0 4.3 0.01 0.25 0.25 85 1009.2
20260509230037 55 173 0.0 0.0 0.01 0.25 0.25 86 1009.2
20260509225528 55 0 0.0 0.0 0.01 0.25 0.25 87 1009.2
20260509225027 54 0 0.0 0.0 0.02 0.25 0.25 87 1009.1
20260509224535 54 0 0.0 5.2 0.02 0.25 0.25 87 1009.3
20260509224026 54 0 0.0 5.2 0.02 0.25 0.25 86 1009.1
20260509223527 54 163 0.9 5.2 0.02 0.25 0.25 87 1009.2
20260509223040 54 0 0.0 2.6 0.02 0.25 0.25 87 1009.2
20260509222527 54 0 0.0 4.3 0.03 0.25 0.25 87 1009.2
20260509222027 54 151 0.9 4.3 0.03 0.25 0.25 87 1009.3
20260509221539 54 150 0.0 4.3 0.02 0.24 0.24 87 1009.3
20260509221027 54 150 0.9 5.2 0.03 0.24 0.24 88 1009.4
20260509220526 54 0 0.9 6.1 0.03 0.24 0.24 88 1009.5
20260509220042 54 0 0.0 6.1 0.03 0.24 0.24 88 1009.3
20260509215527 54 0 0.0 1.7 0.04 0.24 0.24 88 1009.4
20260509215027 54 0 0.0 5.2 0.03 0.23 0.23 88 1009.3
20260509214539 54 0 0.9 5.2 0.03 0.23 0.23 88 1009.4
20260509214029 54 0 0.0 4.3 0.04 0.23 0.23 88 1009.6
20260509213527 54 170 0.0 4.3 0.04 0.23 0.23 88 1009.6
20260509213042 54 0 0.9 3.5 0.04 0.23 0.23 88 1009.5
20260509212527 54 0 0.0 1.7 0.04 0.22 0.22 88 1009.6
20260509212030 54 0 0.0 1.7 0.04 0.22 0.22 88 1009.4
20260509211542 53 0 0.0 0.0 0.05 0.22 0.22 88 1009.5
20260509211026 53 0 0.0 0.9 0.04 0.21 0.21 88 1009.5
20260509210527 53 0 0.0 1.7 0.04 0.21 0.21 88 1009.6
20260509210044 53 0 0.0 1.7 0.04 0.21 0.21 88 1009.5
20260509205528 53 198 0.0 1.7 0.04 0.20 0.20 88 1009.8
20260509205027 53 0 0.0 0.0 0.04 0.20 0.20 88 1009.9
20260509204542 53 0 0.0 2.6 0.04 0.19 0.19 88 1010.0
20260509204027 53 0 0.0 2.6 0.04 0.19 0.19 88 1010.1
20260509203530 53 0 0.0 2.6 0.04 0.19 0.19 88 1010.1
20260509203042 53 0 0.0 2.6 0.05 0.19 0.19 87 1010.2
20260509202526 54 200 0.0 4.3 0.04 0.18 0.18 87 1010.3
20260509202025 54 0 0.0 4.3 0.04 0.18 0.18 87 1010.4
20260509201540 54 184 0.9 13.9 0.04 0.17 0.17 87 1010.4
20260509201026 54 168 2.6 13.9 0.04 0.17 0.17 87 1010.4
20260509200526 54 0 0.0 4.3 0.04 0.17 0.17 87 1010.4
20260509200045 54 0 0.9 4.3 0.04 0.17 0.17 87 1010.5
20260509195527 54 0 0.0 0.0 0.04 0.16 0.16 87 1010.6
20260509195026 54 0 0.0 2.6 0.04 0.16 0.16 87 1010.7
20260509194547 55 0 0.0 2.6 0.03 0.15 0.15 87 1010.7
20260509194031 55 192 0.9 4.3 0.04 0.15 0.15 87 1010.8
20260509193527 55 204 0.9 4.3 0.04 0.15 0.15 87 1010.9
20260509193040 55 0 0.0 0.9 0.03 0.14 0.14 87 1010.9
20260509192526 55 0 0.0 0.0 0.03 0.14 0.14 88 1011.1
20260509192026 56 0 0.0 0.0 0.03 0.13 0.13 88 1011.0
20260509191542 56 0 0.0 0.0 0.03 0.13 0.13 88 1011.0
20260509191031 56 0 0.0 0.0 0.03 0.13 0.13 87 1011.1
20260509190526 56 0 0.0 3.5 0.04 0.13 0.13 88 1011.0
20260509190040 56 0 0.0 3.5 0.04 0.13 0.13 88 1011.0
20260509185526 56 0 0.0 0.0 0.03 0.12 0.12 88 1010.9
20260509185026 56 0 0.0 0.0 0.03 0.12 0.12 88 1011.1
20260509184538 56 0 0.0 0.0 0.03 0.12 0.12 88 1010.9
20260509184027 56 0 0.0 0.0 0.02 0.11 0.11 88 1010.8
20260509183526 56 0 0.0 0.0 0.02 0.11 0.11 88 1010.8
20260509183056 56 0 0.0 0.0 0.03 0.11 0.11 88 1010.8
20260509182529 56 0 0.0 0.0 0.03 0.11 0.11 88 1010.8
20260509182027 56 0 0.0 0.9 0.02 0.10 0.10 87 1010.7
20260509181538 56 0 0.0 0.9 0.02 0.10 0.10 87 1010.8
20260509181027 56 171 0.0 1.7 0.02 0.10 0.10 87 1010.7
20260509180528 56 0 0.0 1.7 0.01 0.09 0.09 87 1010.5